{"data":{"norad_id":67658,"intl_designator":"2026-022L","name":"STARLINK-36701","alt_names":[],"object_type":"PAYLOAD","status":"ACTIVE","operator":null,"country":"US","launch_date":"2026-02-02","launch_site_code":"AFWTR","launch_vehicle":null,"mission":null,"orbit_class":"UNKNOWN","rcs_meters":null,"size_class":null,"mass_kg":null,"dimensions":null,"purposes":["comms"],"wikipedia_slug":null,"has_3d_model":false,"image_url":null,"decayed_at":null,"tle_current":{"epoch":"2026-05-25T01:10:53.232672Z","epoch_age_seconds":70835,"freshness":"FRESH","line1":"1 67658U 26022L   26145.04922723  .00014828  00000+0  46088-3 0  9992","line2":"2 67658  97.2846 178.2855 0001194 141.8286 218.3042 15.33434397 17270","mean_motion":15.33434397,"eccentricity":0.0001194,"inclination_deg":97.2846,"raan_deg":178.2855,"arg_perigee_deg":141.8286,"mean_anomaly_deg":218.3042,"bstar":0.00046088,"rev_number":1727,"period_min":93.906853975443,"perigee_km":464.75758254849,"apogee_km":466.39186090764,"semimajor_km":6843.7117217281,"source":"CELESTRAK","updated_at":"2026-05-25T13:38:21.658753Z"}}}